sat.trackr.live / text

‹ back to catalog

STARLINK-36636

NORAD 67611 · 2026-018Y

PAYLOAD ACTIVE UNKNOWN

§ Identity

Operator
Country
US
Launch date
2026-01-29
Launch site
AFWTR
Launch vehicle
Mass (kg)
RCS (m²)

Purposes: comms

External: N2YO · Heavens-Above · Gunter

§ Orbital elements

Epoch: 2026-05-25T02:51:15.374880Z

Period
93.91 min
Inclination
97.2840°
Eccentricity
0.0000425
Mean motion
15.33459014 rev/d
Perigee alt
465.2 km
Apogee alt
465.8 km
Semi-major
6,843.6 km
B*
6.2392e-4
RAAN
210.1950°
Arg perigee
243.7614°
Mean anomaly
116.3585°
Rev number
1,904

§ Raw data

STARLINK-366361 67611U 26018Y   26145.11892795  .00020130  00000+0  62392-3 0  99982 67611  97.2840 210.1950 0000425 243.7614 116.3585 15.33459014 19047

JSON: /api/v1/satellites/67611 · /tle

For live sub-satellite position, see the globe view (requires WebGL).

§ Visibility from observer

Set your observer location to see the next 7 days of passes ≥ 10°. The values pass through the URL so the page stays shareable.

No JS? Fill the form by hand. The geolocation button needs JavaScript.